owner,sensor,date,latitude,longitude,sea_surface_height_above_sea_level,qcFlag 
TCOON,ioos:station:TCOON:009:1,2016-02-01T15:42:00Z,27.8398,-97.0727,1.704,1111122 
TCOON,ioos:station:TCOON:009:1,2016-02-01T16:48:00Z,27.8398,-97.0727,1.695,1111122 
TCOON,ioos:station:TCOON:009:1,2016-02-01T17:42:00Z,27.8398,-97.0727,1.712,1111122 
TCOON,ioos:station:TCOON:009:1,2016-02-01T19:12:00Z,27.8398,-97.0727,1.693,1111122 
TCOON,ioos:station:TCOON:009:1,2016-02-01T19:36:00Z,27.8398,-97.0727,1.71,1111122 
TCOON,ioos:station:TCOON:009:1,2016-02-01T20:36:00Z,27.8398,-97.0727,1.716,1111122 
TCOON,ioos:station:TCOON:009:1,2016-02-01T21:30:00Z,27.8398,-97.0727,1.754,1111122 
TCOON,ioos:station:TCOON:009:1,2016-02-01T22:30:00Z,27.8398,-97.0727,1.738,1111122 
TCOON,ioos:station:TCOON:009:1,2016-02-01T23:30:00Z,27.8398,-97.0727,1.74,1111122 
TCOON,ioos:station:TCOON:009:1,2016-02-02T00:30:00Z,27.8398,-97.0727,1.749,1111122 
TCOON,ioos:station:TCOON:009:1,2016-02-02T01:30:00Z,27.8398,-97.0727,1.777,1111122 
TCOON,ioos:station:TCOON:009:1,2016-02-02T02:30:00Z,27.8398,-97.0727,1.781,1111122 
TCOON,ioos:station:TCOON:009:1,2016-02-02T03:30:00Z,27.8398,-97.0727,1.769,1111122 
TCOON,ioos:station:TCOON:009:1,2016-02-02T04:30:00Z,27.8398,-97.0727,1.746,1111122 
TCOON,ioos:station:TCOON:009:1,2016-02-02T05:30:00Z,27.8398,-97.0727,1.727,1111122 
TCOON,ioos:station:TCOON:009:1,2016-02-02T06:30:00Z,27.8398,-97.0727,1.71,1111122 
TCOON,ioos:station:TCOON:009:1,2016-02-02T07:30:00Z,27.8398,-97.0727,1.645,1111122 
TCOON,ioos:station:TCOON:009:1,2016-02-02T08:30:00Z,27.8398,-97.0727,1.625,1111122 
TCOON,ioos:station:TCOON:009:1,2016-02-02T09:42:00Z,27.8398,-97.0727,1.588,1111122 
TCOON,ioos:station:TCOON:009:1,2016-02-02T10:30:00Z,27.8398,-97.0727,1.595,1111122 
TCOON,ioos:station:TCOON:009:1,2016-02-02T11:30:00Z,27.8398,-97.0727,1.588,1111122 
TCOON,ioos:station:TCOON:009:1,2016-02-02T12:30:00Z,27.8398,-97.0727,1.62,1111122 
TCOON,ioos:station:TCOON:009:1,2016-02-02T13:30:00Z,27.8398,-97.0727,1.689,1111122 
TCOON,ioos:station:TCOON:009:1,2016-02-02T14:30:00Z,27.8398,-97.0727,1.725,1111122 
TCOON,ioos:station:TCOON:009:1,2016-02-02T15:30:00Z,27.8398,-97.0727,1.734,1111122 
TCOON,ioos:station:TCOON:009:1,2016-02-02T18:42:00Z,27.8398,-97.0727,1.834,1111122 
TCOON,ioos:station:TCOON:009:1,2016-02-02T19:24:00Z,27.8398,-97.0727,1.824,1111122 
TCOON,ioos:station:TCOON:009:1,2016-02-02T20:30:00Z,27.8398,-97.0727,1.848,1111122 
TCOON,ioos:station:TCOON:009:1,2016-02-02T21:30:00Z,27.8398,-97.0727,1.884,1111122 
TCOON,ioos:station:TCOON:009:1,2016-02-02T22:24:00Z,27.8398,-97.0727,1.866,1111122 
TCOON,ioos:station:TCOON:009:1,2016-02-02T23:24:00Z,27.8398,-97.0727,1.89,1111122 
TCOON,ioos:station:TCOON:009:1,2016-02-03T00:24:00Z,27.8398,-97.0727,1.891,1111122 
TCOON,ioos:station:TCOON:009:1,2016-02-03T01:24:00Z,27.8398,-97.0727,1.878,1111122 
TCOON,ioos:station:TCOON:009:1,2016-02-03T02:24:00Z,27.8398,-97.0727,1.895,1111122 
TCOON,ioos:station:TCOON:009:1,2016-02-03T03:24:00Z,27.8398,-97.0727,1.858,1111122 
TCOON,ioos:station:TCOON:009:1,2016-02-03T04:30:00Z,27.8398,-97.0727,1.874,1111122 
TCOON,ioos:station:TCOON:009:1,2016-02-03T05:24:00Z,27.8398,-97.0727,1.877,1111122 
TCOON,ioos:station:TCOON:009:1,2016-02-03T06:30:00Z,27.8398,-97.0727,1.829,1111122 
TCOON,ioos:station:TCOON:009:1,2016-02-03T07:24:00Z,27.8398,-97.0727,1.744,1111122 
TCOON,ioos:station:TCOON:009:1,2016-02-03T08:30:00Z,27.8398,-97.0727,1.673,1111122 
TCOON,ioos:station:TCOON:009:1,2016-02-03T09:42:00Z,27.8398,-97.0727,1.638,1111122 
TCOON,ioos:station:TCOON:009:1,2016-02-03T10:30:00Z,27.8398,-97.0727,1.614,1111122 
TCOON,ioos:station:TCOON:009:1,2016-02-03T11:24:00Z,27.8398,-97.0727,1.603,1111122 
TCOON,ioos:station:TCOON:009:1,2016-02-03T12:24:00Z,27.8398,-97.0727,1.643,1111122 
TCOON,ioos:station:TCOON:009:1,2016-02-03T13:24:00Z,27.8398,-97.0727,1.655,1111122 
TCOON,ioos:station:TCOON:009:1,2016-02-03T14:30:00Z,27.8398,-97.0727,1.681,1111122 
TCOON,ioos:station:TCOON:009:1,2016-02-03T15:30:00Z,27.8398,-97.0727,1.711,1111122 
TCOON,ioos:station:TCOON:009:1,2016-02-03T16:30:00Z,27.8398,-97.0727,1.76,1111122 
TCOON,ioos:station:TCOON:009:1,2016-02-03T17:24:00Z,27.8398,-97.0727,1.791,1111122 
TCOON,ioos:station:TCOON:009:1,2016-02-03T18:24:00Z,27.8398,-97.0727,1.817,1111122 
TCOON,ioos:station:TCOON:009:1,2016-02-03T19:30:00Z,27.8398,-97.0727,1.828,1111122 
TCOON,ioos:station:TCOON:009:1,2016-02-03T20:30:00Z,27.8398,-97.0727,1.831,1111122 
TCOON,ioos:station:TCOON:009:1,2016-02-03T21:30:00Z,27.8398,-97.0727,1.842,1111122 
TCOON,ioos:station:TCOON:009:1,2016-02-03T22:24:00Z,27.8398,-97.0727,1.877,1111122 
TCOON,ioos:station:TCOON:009:1,2016-02-03T23:24:00Z,27.8398,-97.0727,1.876,1111122 
TCOON,ioos:station:TCOON:009:1,2016-02-04T00:24:00Z,27.8398,-97.0727,1.863,1111122 
TCOON,ioos:station:TCOON:009:1,2016-02-04T01:24:00Z,27.8398,-97.0727,1.872,1111122 
TCOON,ioos:station:TCOON:009:1,2016-02-04T02:24:00Z,27.8398,-97.0727,1.843,1111122 
TCOON,ioos:station:TCOON:009:1,2016-02-04T03:24:00Z,27.8398,-97.0727,1.845,1111122 
TCOON,ioos:station:TCOON:009:1,2016-02-04T04:24:00Z,27.8398,-97.0727,1.835,1111122 
TCOON,ioos:station:TCOON:009:1,2016-02-04T05:24:00Z,27.8398,-97.0727,1.768,1111122 
TCOON,ioos:station:TCOON:009:1,2016-02-04T06:24:00Z,27.8398,-97.0727,1.751,1111122 
TCOON,ioos:station:TCOON:009:1,2016-02-04T14:42:00Z,27.8398,-97.0727,1.58,1111122 
TCOON,ioos:station:TCOON:009:1,2016-02-04T15:30:00Z,27.8398,-97.0727,1.609,1111122 
TCOON,ioos:station:TCOON:009:1,2016-02-04T16:30:00Z,27.8398,-97.0727,1.674,1111122 
TCOON,ioos:station:TCOON:009:1,2016-02-04T17:36:00Z,27.8398,-97.0727,1.732,1111122 
TCOON,ioos:station:TCOON:009:1,2016-02-04T18:30:00Z,27.8398,-97.0727,1.747,1111122 
TCOON,ioos:station:TCOON:009:1,2016-02-04T19:30:00Z,27.8398,-97.0727,1.735,1111122 
TCOON,ioos:station:TCOON:009:1,2016-02-04T20:30:00Z,27.8398,-97.0727,1.742,1111122 
TCOON,ioos:station:TCOON:009:1,2016-02-04T21:30:00Z,27.8398,-97.0727,1.773,1111122 
TCOON,ioos:station:TCOON:009:1,2016-02-04T22:36:00Z,27.8398,-97.0727,1.773,1111122 
TCOON,ioos:station:TCOON:009:1,2016-02-04T23:30:00Z,27.8398,-97.0727,1.769,1111122 
TCOON,ioos:station:TCOON:009:1,2016-02-05T00:24:00Z,27.8398,-97.0727,1.773,1111122 
TCOON,ioos:station:TCOON:009:1,2016-02-05T01:24:00Z,27.8398,-97.0727,1.754,1111122 
TCOON,ioos:station:TCOON:009:1,2016-02-05T02:24:00Z,27.8398,-97.0727,1.725,1111122 
TCOON,ioos:station:TCOON:009:1,2016-02-05T03:24:00Z,27.8398,-97.0727,1.784,1111122 
TCOON,ioos:station:TCOON:009:1,2016-02-05T04:24:00Z,27.8398,-97.0727,1.77,1111122 
TCOON,ioos:station:TCOON:009:1,2016-02-05T05:24:00Z,27.8398,-97.0727,1.736,1111122 
TCOON,ioos:station:TCOON:009:1,2016-02-05T06:30:00Z,27.8398,-97.0727,1.687,1111122 
TCOON,ioos:station:TCOON:009:1,2016-02-05T07:24:00Z,27.8398,-97.0727,1.619,1111122 
TCOON,ioos:station:TCOON:009:1,2016-02-05T08:24:00Z,27.8398,-97.0727,1.573,1111122 
TCOON,ioos:station:TCOON:009:1,2016-02-05T10:06:00Z,27.8398,-97.0727,1.512,1111122 
TCOON,ioos:station:TCOON:009:1,2016-02-05T11:24:00Z,27.8398,-97.0727,1.452,1111122 
TCOON,ioos:station:TCOON:009:1,2016-02-05T12:24:00Z,27.8398,-97.0727,1.432,1111122 
TCOON,ioos:station:TCOON:009:1,2016-02-05T13:24:00Z,27.8398,-97.0727,1.441,1111122 
TCOON,ioos:station:TCOON:009:1,2016-02-05T14:24:00Z,27.8398,-97.0727,1.489,1111122 
TCOON,ioos:station:TCOON:009:1,2016-02-05T15:24:00Z,27.8398,-97.0727,1.548,1111122 
TCOON,ioos:station:TCOON:009:1,2016-02-05T16:24:00Z,27.8398,-97.0727,1.618,1111122 
TCOON,ioos:station:TCOON:009:1,2016-02-05T17:30:00Z,27.8398,-97.0727,1.675,1111122 
TCOON,ioos:station:TCOON:009:1,2016-02-05T18:24:00Z,27.8398,-97.0727,1.697,1111122 
TCOON,ioos:station:TCOON:009:1,2016-02-05T19:24:00Z,27.8398,-97.0727,1.738,1111122 
TCOON,ioos:station:TCOON:009:1,2016-02-05T20:24:00Z,27.8398,-97.0727,1.748,1111122 
TCOON,ioos:station:TCOON:009:1,2016-02-05T21:30:00Z,27.8398,-97.0727,1.763,1111122 
TCOON,ioos:station:TCOON:009:1,2016-02-05T23:54:00Z,27.8398,-97.0727,1.769,1111122 
TCOON,ioos:station:TCOON:009:1,2016-02-06T00:36:00Z,27.8398,-97.0727,1.789,1111122 
TCOON,ioos:station:TCOON:009:1,2016-02-06T01:18:00Z,27.8398,-97.0727,1.791,1111122 
TCOON,ioos:station:TCOON:009:1,2016-02-06T02:18:00Z,27.8398,-97.0727,1.82,1111122 
TCOON,ioos:station:TCOON:009:1,2016-02-06T03:18:00Z,27.8398,-97.0727,1.81,1111122 
TCOON,ioos:station:TCOON:009:1,2016-02-06T04:18:00Z,27.8398,-97.0727,1.805,1111122 
TCOON,ioos:station:TCOON:009:1,2016-02-06T05:24:00Z,27.8398,-97.0727,1.814,1111122 
TCOON,ioos:station:TCOON:009:1,2016-02-06T06:24:00Z,27.8398,-97.0727,1.804,1111122 
TCOON,ioos:station:TCOON:009:1,2016-02-06T07:24:00Z,27.8398,-97.0727,1.775,1111122 
TCOON,ioos:station:TCOON:009:1,2016-02-06T08:24:00Z,27.8398,-97.0727,1.737,1111122 
TCOON,ioos:station:TCOON:009:1,2016-02-06T09:30:00Z,27.8398,-97.0727,1.671,1111122 
TCOON,ioos:station:TCOON:009:1,2016-02-06T10:18:00Z,27.8398,-97.0727,1.614,1111122 
TCOON,ioos:station:TCOON:009:1,2016-02-06T11:30:00Z,27.8398,-97.0727,1.559,1111122 
TCOON,ioos:station:TCOON:009:1,2016-02-06T12:24:00Z,27.8398,-97.0727,1.53,1111122 
TCOON,ioos:station:TCOON:009:1,2016-02-06T13:24:00Z,27.8398,-97.0727,1.541,1111122 
TCOON,ioos:station:TCOON:009:1,2016-02-06T14:24:00Z,27.8398,-97.0727,1.553,1111122 
TCOON,ioos:station:TCOON:009:1,2016-02-06T15:24:00Z,27.8398,-97.0727,1.536,1111122 
TCOON,ioos:station:TCOON:009:1,2016-02-06T16:24:00Z,27.8398,-97.0727,1.596,1111122 
TCOON,ioos:station:TCOON:009:1,2016-02-06T17:18:00Z,27.8398,-97.0727,1.667,1111122 
TCOON,ioos:station:TCOON:009:1,2016-02-06T21:00:00Z,27.8398,-97.0727,1.773,1111122 
TCOON,ioos:station:TCOON:009:1,2016-02-06T21:24:00Z,27.8398,-97.0727,1.783,1111122 
TCOON,ioos:station:TCOON:009:1,2016-02-06T22:24:00Z,27.8398,-97.0727,1.774,1111122 
TCOON,ioos:station:TCOON:009:1,2016-02-06T23:42:00Z,27.8398,-97.0727,1.76,1111122 
TCOON,ioos:station:TCOON:009:1,2016-02-07T00:18:00Z,27.8398,-97.0727,1.752,1111122 
TCOON,ioos:station:TCOON:009:1,2016-02-07T01:18:00Z,27.8398,-97.0727,1.753,1111122 
TCOON,ioos:station:TCOON:009:1,2016-02-07T02:18:00Z,27.8398,-97.0727,1.75,1111122 
TCOON,ioos:station:TCOON:009:1,2016-02-07T03:18:00Z,27.8398,-97.0727,1.716,1111122 
TCOON,ioos:station:TCOON:009:1,2016-02-07T04:18:00Z,27.8398,-97.0727,1.763,1111122 
TCOON,ioos:station:TCOON:009:1,2016-02-07T05:24:00Z,27.8398,-97.0727,1.749,1111122 
TCOON,ioos:station:TCOON:009:1,2016-02-07T06:24:00Z,27.8398,-97.0727,1.715,1111122 
TCOON,ioos:station:TCOON:009:1,2016-02-07T07:24:00Z,27.8398,-97.0727,1.646,1111122 
TCOON,ioos:station:TCOON:009:1,2016-02-07T08:24:00Z,27.8398,-97.0727,1.631,1111122 
TCOON,ioos:station:TCOON:009:1,2016-02-07T09:48:00Z,27.8398,-97.0727,1.565,1111122 
TCOON,ioos:station:TCOON:009:1,2016-02-07T10:24:00Z,27.8398,-97.0727,1.51,1111122 
TCOON,ioos:station:TCOON:009:1,2016-02-07T11:24:00Z,27.8398,-97.0727,1.46,1111122 
TCOON,ioos:station:TCOON:009:1,2016-02-07T12:18:00Z,27.8398,-97.0727,1.363,1111122 
TCOON,ioos:station:TCOON:009:1,2016-02-07T13:18:00Z,27.8398,-97.0727,1.384,1111122 
TCOON,ioos:station:TCOON:009:1,2016-02-07T14:18:00Z,27.8398,-97.0727,1.374,1111122 
TCOON,ioos:station:TCOON:009:1,2016-02-07T15:18:00Z,27.8398,-97.0727,1.369,1111122 
TCOON,ioos:station:TCOON:009:1,2016-02-07T16:18:00Z,27.8398,-97.0727,1.424,1111122 
TCOON,ioos:station:TCOON:009:1,2016-02-07T17:18:00Z,27.8398,-97.0727,1.477,1111122 
TCOON,ioos:station:TCOON:009:1,2016-02-08T00:18:00Z,27.8398,-97.0727,1.729,1111122 
TCOON,ioos:station:TCOON:009:1,2016-02-08T01:18:00Z,27.8398,-97.0727,1.736,1111122 
TCOON,ioos:station:TCOON:009:1,2016-02-08T02:18:00Z,27.8398,-97.0727,1.739,1111122 
TCOON,ioos:station:TCOON:009:1,2016-02-08T03:18:00Z,27.8398,-97.0727,1.755,1111122 
TCOON,ioos:station:TCOON:009:1,2016-02-08T04:18:00Z,27.8398,-97.0727,1.767,1111122 
TCOON,ioos:station:TCOON:009:1,2016-02-08T05:18:00Z,27.8398,-97.0727,1.787,1111122 
TCOON,ioos:station:TCOON:009:1,2016-02-08T06:18:00Z,27.8398,-97.0727,1.778,1111122 
TCOON,ioos:station:TCOON:009:1,2016-02-08T07:18:00Z,27.8398,-97.0727,1.788,1111122 
TCOON,ioos:station:TCOON:009:1,2016-02-08T08:18:00Z,27.8398,-97.0727,1.772,1111122 
TCOON,ioos:station:TCOON:009:1,2016-02-08T09:42:00Z,27.8398,-97.0727,1.692,1111122 
TCOON,ioos:station:TCOON:009:1,2016-02-08T10:18:00Z,27.8398,-97.0727,1.65,1111122 
TCOON,ioos:station:TCOON:009:1,2016-02-08T11:18:00Z,27.8398,-97.0727,1.559,1111122 
TCOON,ioos:station:TCOON:009:1,2016-02-08T12:18:00Z,27.8398,-97.0727,1.449,1111122 
TCOON,ioos:station:TCOON:009:1,2016-02-08T13:18:00Z,27.8398,-97.0727,1.379,1111122 
TCOON,ioos:station:TCOON:009:1,2016-02-08T14:18:00Z,27.8398,-97.0727,1.314,1111122 
TCOON,ioos:station:TCOON:009:1,2016-02-08T15:24:00Z,27.8398,-97.0727,1.275,1111122 
TCOON,ioos:station:TCOON:009:1,2016-02-08T16:24:00Z,27.8398,-97.0727,1.328,1111122 
TCOON,ioos:station:TCOON:009:1,2016-02-08T17:24:00Z,27.8398,-97.0727,1.384,1111122 
TCOON,ioos:station:TCOON:009:1,2016-02-08T18:18:00Z,27.8398,-97.0727,1.462,1111122 
TCOON,ioos:station:TCOON:009:1,2016-02-08T19:18:00Z,27.8398,-97.0727,1.509,1111122 
TCOON,ioos:station:TCOON:009:1,2016-02-09T00:18:00Z,27.8398,-97.0727,1.606,1111122 
TCOON,ioos:station:TCOON:009:1,2016-02-09T01:18:00Z,27.8398,-97.0727,1.614,1111122 
TCOON,ioos:station:TCOON:009:1,2016-02-09T02:18:00Z,27.8398,-97.0727,1.592,1111122 
TCOON,ioos:station:TCOON:009:1,2016-02-09T03:18:00Z,27.8398,-97.0727,1.472,1111122 
TCOON,ioos:station:TCOON:009:1,2016-02-09T04:18:00Z,27.8398,-97.0727,1.584,1111122 
TCOON,ioos:station:TCOON:009:1,2016-02-09T05:18:00Z,27.8398,-97.0727,1.585,1111122 
TCOON,ioos:station:TCOON:009:1,2016-02-09T06:18:00Z,27.8398,-97.0727,1.591,1111122 
TCOON,ioos:station:TCOON:009:1,2016-02-09T07:18:00Z,27.8398,-97.0727,1.565,1111122 
TCOON,ioos:station:TCOON:009:1,2016-02-09T08:18:00Z,27.8398,-97.0727,1.55,1111122 
TCOON,ioos:station:TCOON:009:1,2016-02-09T09:36:00Z,27.8398,-97.0727,1.516,1111122 
TCOON,ioos:station:TCOON:009:1,2016-02-09T10:18:00Z,27.8398,-97.0727,1.487,1111122 
TCOON,ioos:station:TCOON:009:1,2016-02-09T11:18:00Z,27.8398,-97.0727,1.4,1111122 
TCOON,ioos:station:TCOON:009:1,2016-02-09T12:18:00Z,27.8398,-97.0727,1.32,1111122 
TCOON,ioos:station:TCOON:009:1,2016-02-09T13:18:00Z,27.8398,-97.0727,1.217,1111122 
TCOON,ioos:station:TCOON:009:1,2016-02-09T14:30:00Z,27.8398,-97.0727,1.169,1111122 
TCOON,ioos:station:TCOON:009:1,2016-02-09T15:18:00Z,27.8398,-97.0727,1.152,1111122 
TCOON,ioos:station:TCOON:009:1,2016-02-09T16:24:00Z,27.8398,-97.0727,1.167,1111122 
TCOON,ioos:station:TCOON:009:1,2016-02-09T17:18:00Z,27.8398,-97.0727,1.173,1111122 
TCOON,ioos:station:TCOON:009:1,2016-02-09T18:18:00Z,27.8398,-97.0727,1.223,1111122 
TCOON,ioos:station:TCOON:009:1,2016-02-09T19:18:00Z,27.8398,-97.0727,1.282,1111122 
TCOON,ioos:station:TCOON:009:1,2016-02-09T20:18:00Z,27.8398,-97.0727,1.39,1111122 
TCOON,ioos:station:TCOON:009:1,2016-02-10T00:42:00Z,27.8398,-97.0727,1.462,1111122 
TCOON,ioos:station:TCOON:009:1,2016-02-10T01:18:00Z,27.8398,-97.0727,1.446,1111122 
TCOON,ioos:station:TCOON:009:1,2016-02-10T02:18:00Z,27.8398,-97.0727,1.439,1111122 
TCOON,ioos:station:TCOON:009:1,2016-02-10T03:18:00Z,27.8398,-97.0727,1.443,1111122 
TCOON,ioos:station:TCOON:009:1,2016-02-10T04:18:00Z,27.8398,-97.0727,1.436,1111122 
TCOON,ioos:station:TCOON:009:1,2016-02-10T05:24:00Z,27.8398,-97.0727,1.442,1111122 
TCOON,ioos:station:TCOON:009:1,2016-02-10T06:24:00Z,27.8398,-97.0727,1.452,1111122 
TCOON,ioos:station:TCOON:009:1,2016-02-10T07:18:00Z,27.8398,-97.0727,1.489,1111122 
TCOON,ioos:station:TCOON:009:1,2016-02-10T08:18:00Z,27.8398,-97.0727,1.508,1111122 
TCOON,ioos:station:TCOON:009:1,2016-02-10T09:36:00Z,27.8398,-97.0727,1.482,1111122 
TCOON,ioos:station:TCOON:009:1,2016-02-10T10:18:00Z,27.8398,-97.0727,1.462,1111122 
TCOON,ioos:station:TCOON:009:1,2016-02-10T11:18:00Z,27.8398,-97.0727,1.417,1111122 
TCOON,ioos:station:TCOON:009:1,2016-02-10T12:18:00Z,27.8398,-97.0727,1.328,1111122 
TCOON,ioos:station:TCOON:009:1,2016-02-10T13:18:00Z,27.8398,-97.0727,1.26,1111122 
TCOON,ioos:station:TCOON:009:1,2016-02-10T14:18:00Z,27.8398,-97.0727,1.208,1111122 
TCOON,ioos:station:TCOON:009:1,2016-02-10T15:24:00Z,27.8398,-97.0727,1.15,1111122 
TCOON,ioos:station:TCOON:009:1,2016-02-10T16:18:00Z,27.8398,-97.0727,1.128,1111122 
TCOON,ioos:station:TCOON:009:1,2016-02-10T17:18:00Z,27.8398,-97.0727,1.144,1111122 
TCOON,ioos:station:TCOON:009:1,2016-02-10T18:18:00Z,27.8398,-97.0727,1.154,1111122 
TCOON,ioos:station:TCOON:009:1,2016-02-11T00:42:00Z,27.8398,-97.0727,1.377,1111122 
TCOON,ioos:station:TCOON:009:1,2016-02-11T01:18:00Z,27.8398,-97.0727,1.364,1111122 
TCOON,ioos:station:TCOON:009:1,2016-02-11T02:18:00Z,27.8398,-97.0727,1.342,1111122 
TCOON,ioos:station:TCOON:009:1,2016-02-11T03:18:00Z,27.8398,-97.0727,1.352,1111122 
TCOON,ioos:station:TCOON:009:1,2016-02-11T04:18:00Z,27.8398,-97.0727,1.364,1111122 
TCOON,ioos:station:TCOON:009:1,2016-02-11T05:18:00Z,27.8398,-97.0727,1.358,1111122 
TCOON,ioos:station:TCOON:009:1,2016-02-11T06:18:00Z,27.8398,-97.0727,1.367,1111122 
TCOON,ioos:station:TCOON:009:1,2016-02-11T07:18:00Z,27.8398,-97.0727,1.391,1111122 
TCOON,ioos:station:TCOON:009:1,2016-02-11T08:18:00Z,27.8398,-97.0727,1.433,1111122 
TCOON,ioos:station:TCOON:009:1,2016-02-11T09:42:00Z,27.8398,-97.0727,1.471,1111122 
TCOON,ioos:station:TCOON:009:1,2016-02-11T10:24:00Z,27.8398,-97.0727,1.452,1111122 
TCOON,ioos:station:TCOON:009:1,2016-02-11T11:24:00Z,27.8398,-97.0727,1.442,1111122 
TCOON,ioos:station:TCOON:009:1,2016-02-11T12:24:00Z,27.8398,-97.0727,1.416,1111122 
TCOON,ioos:station:TCOON:009:1,2016-02-11T13:24:00Z,27.8398,-97.0727,1.37,1111122 
TCOON,ioos:station:TCOON:009:1,2016-02-11T14:30:00Z,27.8398,-97.0727,1.333,1111122 
TCOON,ioos:station:TCOON:009:1,2016-02-11T15:30:00Z,27.8398,-97.0727,1.305,1111122 
TCOON,ioos:station:TCOON:009:1,2016-02-12T01:30:00Z,27.8398,-97.0727,1.405,1111122 
TCOON,ioos:station:TCOON:009:1,2016-02-12T02:18:00Z,27.8398,-97.0727,1.419,1111122 
TCOON,ioos:station:TCOON:009:1,2016-02-12T03:18:00Z,27.8398,-97.0727,1.386,1111122 
TCOON,ioos:station:TCOON:009:1,2016-02-12T04:18:00Z,27.8398,-97.0727,1.38,1111122 
TCOON,ioos:station:TCOON:009:1,2016-02-12T05:18:00Z,27.8398,-97.0727,1.371,1111122 
TCOON,ioos:station:TCOON:009:1,2016-02-12T06:18:00Z,27.8398,-97.0727,1.375,1111122 
TCOON,ioos:station:TCOON:009:1,2016-02-12T07:18:00Z,27.8398,-97.0727,1.397,1111122 
TCOON,ioos:station:TCOON:009:1,2016-02-12T08:18:00Z,27.8398,-97.0727,1.407,1111122 
TCOON,ioos:station:TCOON:009:1,2016-02-12T09:36:00Z,27.8398,-97.0727,1.476,1111122 
TCOON,ioos:station:TCOON:009:1,2016-02-12T10:18:00Z,27.8398,-97.0727,1.478,1111122 
TCOON,ioos:station:TCOON:009:1,2016-02-12T11:18:00Z,27.8398,-97.0727,1.451,1111122 
TCOON,ioos:station:TCOON:009:1,2016-02-12T12:12:00Z,27.8398,-97.0727,1.481,1111122 
TCOON,ioos:station:TCOON:009:1,2016-02-12T13:18:00Z,27.8398,-97.0727,1.453,1111122 
TCOON,ioos:station:TCOON:009:1,2016-02-12T14:18:00Z,27.8398,-97.0727,1.427,1111122 
TCOON,ioos:station:TCOON:009:1,2016-02-12T15:18:00Z,27.8398,-97.0727,1.378,1111122 
TCOON,ioos:station:TCOON:009:1,2016-02-12T19:42:00Z,27.8398,-97.0727,1.308,1111122 
TCOON,ioos:station:TCOON:009:1,2016-02-12T21:36:00Z,27.8398,-97.0727,1.413,1111122 
TCOON,ioos:station:TCOON:009:1,2016-02-12T22:18:00Z,27.8398,-97.0727,1.423,1111122 
TCOON,ioos:station:TCOON:009:1,2016-02-12T23:18:00Z,27.8398,-97.0727,1.44,1111122 
TCOON,ioos:station:TCOON:009:1,2016-02-13T00:18:00Z,27.8398,-97.0727,1.452,1111122 
TCOON,ioos:station:TCOON:009:1,2016-02-13T01:18:00Z,27.8398,-97.0727,1.42,1111122 
TCOON,ioos:station:TCOON:009:1,2016-02-13T02:18:00Z,27.8398,-97.0727,1.391,1111122 
TCOON,ioos:station:TCOON:009:1,2016-02-13T03:18:00Z,27.8398,-97.0727,1.361,1111122 
TCOON,ioos:station:TCOON:009:1,2016-02-13T04:18:00Z,27.8398,-97.0727,1.364,1111122 
TCOON,ioos:station:TCOON:009:1,2016-02-13T05:12:00Z,27.8398,-97.0727,1.326,1111122 
TCOON,ioos:station:TCOON:009:1,2016-02-13T06:18:00Z,27.8398,-97.0727,1.304,1111122 
TCOON,ioos:station:TCOON:009:1,2016-02-13T07:18:00Z,27.8398,-97.0727,1.312,1111122 
TCOON,ioos:station:TCOON:009:1,2016-02-13T08:18:00Z,27.8398,-97.0727,1.346,1111122 
TCOON,ioos:station:TCOON:009:1,2016-02-13T09:24:00Z,27.8398,-97.0727,1.392,1111122 
TCOON,ioos:station:TCOON:009:1,2016-02-13T10:18:00Z,27.8398,-97.0727,1.427,1111122 
TCOON,ioos:station:TCOON:009:1,2016-02-13T11:18:00Z,27.8398,-97.0727,1.463,1111122 
TCOON,ioos:station:TCOON:009:1,2016-02-13T12:18:00Z,27.8398,-97.0727,1.499,1111122 
TCOON,ioos:station:TCOON:009:1,2016-02-13T13:18:00Z,27.8398,-97.0727,1.465,1111122 
TCOON,ioos:station:TCOON:009:1,2016-02-13T14:18:00Z,27.8398,-97.0727,1.477,1111122 
TCOON,ioos:station:TCOON:009:1,2016-02-13T15:18:00Z,27.8398,-97.0727,1.479,1111122 
TCOON,ioos:station:TCOON:009:1,2016-02-13T16:18:00Z,27.8398,-97.0727,1.467,1111122 
TCOON,ioos:station:TCOON:009:1,2016-02-13T17:18:00Z,27.8398,-97.0727,1.473,1111122 
TCOON,ioos:station:TCOON:009:1,2016-02-13T18:30:00Z,27.8398,-97.0727,1.475,1111122 
TCOON,ioos:station:TCOON:009:1,2016-02-13T19:18:00Z,27.8398,-97.0727,1.455,1111122 
TCOON,ioos:station:TCOON:009:1,2016-02-13T20:18:00Z,27.8398,-97.0727,1.436,1111122 
TCOON,ioos:station:TCOON:009:1,2016-02-13T21:18:00Z,27.8398,-97.0727,1.466,1111122 
TCOON,ioos:station:TCOON:009:1,2016-02-13T22:18:00Z,27.8398,-97.0727,1.5,1111122 
TCOON,ioos:station:TCOON:009:1,2016-02-13T23:18:00Z,27.8398,-97.0727,1.556,1111122 
TCOON,ioos:station:TCOON:009:1,2016-02-14T00:18:00Z,27.8398,-97.0727,1.55,1111122 
TCOON,ioos:station:TCOON:009:1,2016-02-14T01:18:00Z,27.8398,-97.0727,1.539,1111122 
TCOON,ioos:station:TCOON:009:1,2016-02-14T02:18:00Z,27.8398,-97.0727,1.496,1111122 
TCOON,ioos:station:TCOON:009:1,2016-02-14T03:18:00Z,27.8398,-97.0727,1.49,1111122 
TCOON,ioos:station:TCOON:009:1,2016-02-14T04:18:00Z,27.8398,-97.0727,1.445,1111122 
TCOON,ioos:station:TCOON:009:1,2016-02-14T05:18:00Z,27.8398,-97.0727,1.416,1111122 
TCOON,ioos:station:TCOON:009:1,2016-02-14T06:18:00Z,27.8398,-97.0727,1.368,1111122 
TCOON,ioos:station:TCOON:009:1,2016-02-14T07:18:00Z,27.8398,-97.0727,1.373,1111122 
TCOON,ioos:station:TCOON:009:1,2016-02-14T08:18:00Z,27.8398,-97.0727,1.384,1111122 
TCOON,ioos:station:TCOON:009:1,2016-02-14T09:36:00Z,27.8398,-97.0727,1.459,1111122 
TCOON,ioos:station:TCOON:009:1,2016-02-14T10:18:00Z,27.8398,-97.0727,1.488,1111122 
TCOON,ioos:station:TCOON:009:1,2016-02-14T11:18:00Z,27.8398,-97.0727,1.558,1111122 
TCOON,ioos:station:TCOON:009:1,2016-02-14T12:18:00Z,27.8398,-97.0727,1.574,1111122 
TCOON,ioos:station:TCOON:009:1,2016-02-14T13:18:00Z,27.8398,-97.0727,1.588,1111122 
TCOON,ioos:station:TCOON:009:1,2016-02-14T14:18:00Z,27.8398,-97.0727,1.629,1111122 
TCOON,ioos:station:TCOON:009:1,2016-02-14T15:18:00Z,27.8398,-97.0727,1.64,1111122 
TCOON,ioos:station:TCOON:009:1,2016-02-14T16:18:00Z,27.8398,-97.0727,1.658,1111122 
TCOON,ioos:station:TCOON:009:1,2016-02-14T17:18:00Z,27.8398,-97.0727,1.683,1111122 
TCOON,ioos:station:TCOON:009:1,2016-02-14T18:18:00Z,27.8398,-97.0727,1.683,1111122 
TCOON,ioos:station:TCOON:009:1,2016-02-14T19:18:00Z,27.8398,-97.0727,1.684,1111122 
TCOON,ioos:station:TCOON:009:1,2016-02-14T20:18:00Z,27.8398,-97.0727,1.675,1111122 
TCOON,ioos:station:TCOON:009:1,2016-02-14T21:18:00Z,27.8398,-97.0727,1.705,1111122 
TCOON,ioos:station:TCOON:009:1,2016-02-14T22:24:00Z,27.8398,-97.0727,1.723,1111122 
TCOON,ioos:station:TCOON:009:1,2016-02-14T23:18:00Z,27.8398,-97.0727,1.729,1111122 
TCOON,ioos:station:TCOON:009:1,2016-02-15T00:18:00Z,27.8398,-97.0727,1.741,1111122 
TCOON,ioos:station:TCOON:009:1,2016-02-15T01:18:00Z,27.8398,-97.0727,1.733,1111122 
TCOON,ioos:station:TCOON:009:1,2016-02-15T02:18:00Z,27.8398,-97.0727,1.772,1111122 
TCOON,ioos:station:TCOON:009:1,2016-02-15T03:18:00Z,27.8398,-97.0727,1.667,1111122 
TCOON,ioos:station:TCOON:009:1,2016-02-15T04:18:00Z,27.8398,-97.0727,1.658,1111122 
TCOON,ioos:station:TCOON:009:1,2016-02-15T05:18:00Z,27.8398,-97.0727,1.599,1111122 
TCOON,ioos:station:TCOON:009:1,2016-02-15T06:18:00Z,27.8398,-97.0727,1.519,1111122 
TCOON,ioos:station:TCOON:009:1,2016-02-15T07:18:00Z,27.8398,-97.0727,1.504,1111122 